Home > Weather > Kennebunk > Past weeks

Flag for U.S.A. Weather for the Past 2 Weeks in Kennebunk, Maine, U.S.A.

Now
18 °F

Overcast.


Feels Like: 8 °F
Forecast: 19 / 28 °F
Wind: 7 mph from North

Location: Sanford Municipal

Current Time: Feb 9, 2016 at 3:32:33 AM

Latest Report: Feb 9, 2016 at 2:55 AM


Visibility: 2 mi

Pressure: 29.75 "Hg

Humidity: 73%

Dew point: 10 °F

Location of KennebunkLocation

Historic Weather in Kennebunk — Graph

°F

Kennebunk Temperature Yesterday

Maximum temperature yesterday: 27 °F (at 12:15 AM)
Minimum temperature yesterday: 16 °F (at 7:35 AM)
Average temperature yesterday: 19 °F

High & Low Weather Summary for the Past Weeks

 TemperatureHumidityPressure
High57 °F (Feb 1, 11:35 AM)100% (Jan 26, 2:15 AM)30.42 "Hg (Jan 26, 2:15 AM)
Low5 °F (Feb 6, 4:35 AM)33% (Feb 1, 1:15 PM)29.36 "Hg (Jan 29, 1:15 PM)
Average32 °F66%29.97 "Hg
* Reported Jan 25 1:15 AM — Feb 9 1:55 AM, Kennebunk, Weather by CustomWeather, © 2016

Note: Actual official high and low records may vary slightly from our data, if they occured in-between our weather recording intervals... More about our weather records

Advertising

Kennebunk Weather History for the Previous 24 Hours

 ConditionsComfort  
Time TempWeatherWind HumidityBarometerVisibility
1:55 AM
Tue, Feb 9
18 °FOvercast.9 mph73%29.76 "Hg5 mi
1:15 AM18 °FOvercast.12 mph73%29.77 "Hg5 mi
12:55 AM18 °FOvercast.13 mph73%29.76 "Hg5 mi
12:35 AM18 °FMostly cloudy.10 mph86%29.77 "Hg6 mi
11:55 PM
Mon, Feb 8
18 °FMostly cloudy.12 mph79%29.78 "Hg3 mi
11:35 PM18 °FOvercast.12 mph86%29.78 "Hg2 mi
10:55 PM19 °FOvercast.14 mph79%29.78 "Hg2 mi
10:35 PM18 °FOvercast.12 mph86%29.79 "Hg2 mi
10:15 PM18 °FOvercast.13 mph73%29.79 "Hg2 mi
9:55 PM18 °FOvercast.12 mph93%29.79 "Hg2 mi
9:35 PM18 °FOvercast.14 mph73%29.79 "Hg1 mi
9:15 PM18 °FOvercast.15 mph79%29.80 "Hg1 mi
8:35 PM18 °FOvercast.15 mph73%29.80 "Hg1 mi
8:15 PM18 °FOvercast.13 mph86%29.80 "Hg2 mi
7:55 PM18 °FOvercast.12 mph79%29.81 "Hg2 mi
7:35 PM18 °FMostly cloudy.16 mph73%29.80 "Hg1 mi
7:15 PM18 °FOvercast.14 mph86%29.80 "Hg2 mi
6:55 PM18 °FOvercast.17 mph73%29.79 "Hg2 mi
6:35 PM18 °FOvercast.13 mph79%29.79 "Hg2 mi
6:15 PM18 °FOvercast.16 mph79%29.78 "Hg3 mi
5:55 PM18 °FOvercast.16 mph68%29.78 "Hg3 mi
5:15 PM18 °FOvercast.16 mph73%29.77 "Hg1 mi
4:55 PM18 °FOvercast.15 mph79%29.76 "Hg1 mi
4:35 PM18 °FOvercast.16 mph79%29.76 "Hg1 mi
4:15 PM18 °FOvercast.18 mph73%29.76 "Hg1 mi
3:55 PM18 °FOvercast.16 mph86%29.76 "Hg1 mi
3:35 PM18 °FOvercast.16 mph68%29.77 "Hg1 mi
3:15 PM18 °FOvercast.17 mph86%29.77 "Hg1 mi
2:55 PM18 °FOvercast.18 mph68%29.77 "Hg1 mi
2:35 PM18 °FOvercast.18 mph79%29.78 "Hg1 mi
2:15 PM18 °FLow clouds.16 mph73%29.78 "Hg1 mi
1:55 PM18 °FLow clouds.16 mph73%29.79 "Hg1 mi
1:35 PM18 °FOvercast.18 mph73%29.79 "Hg1 mi
1:15 PM18 °FLow clouds.15 mph68%29.81 "Hg1 mi
12:55 PM18 °FOvercast.20 mph73%29.81 "Hg1 mi
12:35 PM18 °FOvercast.20 mph58%29.82 "Hg1 mi
12:15 PM18 °FOvercast.18 mph53%29.85 "Hg10 mi
11:55 AM18 °FMostly cloudy.17 mph45%29.87 "Hg10 mi
11:35 AM18 °FOvercast.17 mph49%29.89 "Hg10 mi
11:15 AM18 °FOvercast.18 mph45%29.90 "Hg10 mi
10:55 AM18 °FOvercast.17 mph49%29.91 "Hg10 mi
10:35 AM18 °FOvercast.17 mph45%29.92 "Hg10 mi
10:15 AM18 °FOvercast.21 mph49%29.92 "Hg10 mi
9:55 AM18 °FOvercast.17 mph45%29.91 "Hg10 mi
9:35 AM18 °FOvercast.16 mph49%29.92 "Hg10 mi
9:15 AM16 °FOvercast.20 mph45%29.93 "Hg10 mi
8:55 AM16 °FMostly cloudy.24 mph48%29.94 "Hg10 mi
8:35 AM16 °FPartly sunny.24 mph45%29.95 "Hg10 mi
8:15 AM16 °FSunny.22 mph45%29.95 "Hg10 mi
7:55 AM16 °FSunny.22 mph45%29.96 "Hg10 mi
7:35 AM16 °FSunny.22 mph41%29.97 "Hg10 mi
7:15 AM18 °FSunny.18 mph41%29.98 "Hg10 mi
6:55 AM18 °FSunny.18 mph38%29.97 "Hg10 mi
6:35 AM18 °FClear.20 mph41%29.97 "Hg10 mi
6:15 AM18 °FClear.21 mph38%29.96 "Hg10 mi
5:55 AM18 °FClear.23 mph41%29.96 "Hg10 mi
5:35 AM18 °FClear.21 mph41%29.96 "Hg10 mi
5:15 AM18 °FClear.17 mph45%29.99 "Hg10 mi
4:55 AM18 °FClear.18 mph41%30.01 "Hg10 mi
4:35 AM18 °FClear.18 mph49%30.01 "Hg10 mi
4:15 AM19 °FClear.17 mph42%30.01 "Hg10 mi
3:55 AM19 °FClear.18 mph49%30.01 "Hg10 mi
3:35 AM21 °FClear.18 mph42%30.02 "Hg10 mi
3:15 AM21 °FClear.22 mph45%30.03 "Hg10 mi
Weather by CustomWeather, © 2016

See weather overviewHow to use our weather pages